Regional Weather Roundup
Issued by NWS

Current Version | Previous Version | Text Only | Print | Product List | Glossary On
Versions: 1 2 3 4 5 6 7 8 9 10 11 12 13 14 15 16 17 18 19 20 21 22 23 24 25 26 27 28 29 30 31 32 33 34 35 36 37 38 39 40 41 42 43 44 45 46 47 48 49 50
000
ASUS44 KOUN 031310
RWROK

WEATHER ROUNDUP FOR OKLAHOMA
NATIONAL WEATHER SERVICE NORMAN OK
800 AM CDT MON AUG 03 2015

NOTE: "FAIR" INDICATES FEW OR NO CLOUDS BELOW 12,000 FEET WITH NO
      SIGNIFICANT WEATHER AND/OR OBSTRUCTIONS TO VISIBILITY.

OKZ001>007-009>012-014-015-017-031400-
NORTHWEST OKLAHOMA AND THE PANHANDLE

CITY           SKY/WX    TMP DP  RH WIND       PRES   REMARKS
GAGE           PTSUNNY   71  66  84 S9        29.98R
GUYMON         PTSUNNY   70  65  84 SE6       29.99R
ENID/WOODRING  PTSUNNY   75  70  83 S7        29.95R
$$

OKZ016-021>023-033>039-044-045-031400-
SOUTHWEST OKLAHOMA

CITY           SKY/WX    TMP DP  RH WIND       PRES   REMARKS
LAWTON/REGL    LGT RAIN  71  65  81 W6        29.97S
LAWTON/FT SILL LGT RAIN  71  67  88 W7        29.95S
FREDERICK      LGT RAIN  73  69  87 N5        29.96S
CLINTON        CLOUDY    72  68  87 S9        29.97F
HOBART         LGT RAIN  70  67  90 S13       29.97F
ALTUS AFB      LGT RAIN  69  67  92 S13       29.97F
$$

OKZ018>020-024>031-031400-
CENTRAL OKLAHOMA

CITY           SKY/WX    TMP DP  RH WIND       PRES   REMARKS
OKLAHOMA CITY  CLOUDY    73  65  75 SW5       29.97R
OKC/WILEY POST CLOUDY    76  64  66 SW8       29.96S
OKC/TINKER AFB CLOUDY    74  65  72 SW6       29.96S
STILLWATER     PTSUNNY   75  67  76 S6        29.96R
GUTHRIE        PTSUNNY   74  67  78 S5        29.96R
$$

OKZ008-013-054>072-031400-
NORTHEAST OKLAHOMA

CITY           SKY/WX    TMP DP  RH WIND       PRES   REMARKS
TULSA          CLOUDY    78  71  79 SE3       29.94R
TULSA/JONES    CLOUDY    76  72  87 CALM      29.94R
PONCA CITY     PTSUNNY   76  67  73 SW5       29.95R
MUSKOGEE       PTSUNNY   75  73  93 S5        29.96R
$$

OKZ032-040>043-046>053-073>077-031400-
SOUTH CENTRAL/SOUTHEAST OKLAHOMA

CITY           SKY/WX    TMP DP  RH WIND       PRES   REMARKS
ARDMORE/DWNTWN CLOUDY    73  64  73 CALM      29.96R
MCALESTER      PTSUNNY   74  65  73 CALM      29.96R
$$



USA.gov is the U.S. government's official web portal to all federal, state and local government web resources and services.